Faa'a International Airport

Jump to: basic info | weather | frequencies | runways | comments

Related pages: nearby airports | nearby navaids | notams | map

Basic information (top)

Codes: PPT NTAA
Location: lon -17.553699, lat -149.606995, elev 5 ft / 2 m msl
Status: medium_airport
Scheduled airline service: yes
Links: Wikipedia Mobile

Weather (top)

Current conditions (rec'd 2015/01/27 05:30Z):

NTAA 270530Z 17003KT 9999 FEW020 OVC060 26/22 Q1009 NOSIG

Airport forecast (rec'd 2015/01/26 00:12Z):

TAF NTAA 262300Z 2700/2806 36006KT 9999 FEW020 SCT045 BKN180 
      BECMG 2704/2706 VRB06KT 
      BECMG 2716/2718 FEW023 SCT045 BKN260 PROB30 
      TEMPO 2700/2709 32015G25KT 2000 SHRA FEW010 BKN020TCU

Frequencies (top)

Verify before use: may be inaccurate or out of date.

APP: 118.1 MHz (APP)
ATIS: 128.8 MHz (ATIS)
GND: 121.9 MHz (GND)
TWR: 118.1 MHz (TWR)

Runways (top)

04/22: 11,360 x 148 ft (3,463 x 45 m) — paved — lighted — threshold 04 displaced 1,120 ft (341 m) — threshold 22 displaced 390 ft (119 m)

Latest comments (top)

Fa'a'a international Airport: a great hot country [read]

More... (top)

See also NOTAMs and nearby airports and navaids, or visit the Faa'a International Airport page at the main OurAirports website..